Time,TemperatureF,DewpointF,PressureIn,WindDirection,WindDirectionDegrees,WindSpeedMPH,WindSpeedGustMPH,Humidity,HourlyPrecipIn,Conditions,Clouds,dailyrainin,SoftwareType,DateUTC
2013-03-26 18:16:00,33.3,30.1,29.68,NNE,29,0.0,0.0,88,0.00,,,0.00,VWS V12.08,2013-03-26 17:16:00,
2013-03-26 18:22:00,33.3,30.1,29.68,NNE,29,2.7,2.7,88,0.00,,,0.00,VWS V12.08,2013-03-26 17:22:00,
2013-03-26 18:27:00,33.3,30.1,29.68,NNE,29,2.7,3.1,88,0.00,,,0.00,VWS V12.08,2013-03-26 17:27:00,
2013-03-26 18:32:00,33.1,29.9,29.68,North,357,3.6,4.0,88,0.00,,,0.00,VWS V12.08,2013-03-26 17:32:00,
2013-03-26 18:37:00,33.1,29.9,29.68,NNE,26,3.1,4.9,88,0.00,,,0.00,VWS V12.08,2013-03-26 17:37:00,
2013-03-26 18:42:00,33.1,29.9,29.68,North,357,2.7,4.9,88,0.00,,,0.00,VWS V12.08,2013-03-26 17:42:00,
2013-03-26 18:47:00,32.9,29.7,29.68,NE,41,3.6,4.9,88,0.00,,,0.00,VWS V12.08,2013-03-26 17:47:00,
2013-03-26 18:52:00,32.7,29.6,29.68,NNE,28,3.6,5.4,88,0.00,,,0.00,VWS V12.08,2013-03-26 17:52:00,
2013-03-26 18:57:00,32.7,29.6,29.68,North,10,3.6,5.8,88,0.00,,,0.00,VWS V12.08,2013-03-26 17:57:00,
2013-03-26 19:02:00,32.7,29.6,29.68,NNE,26,2.7,5.4,88,0.00,,,0.00,VWS V12.08,2013-03-26 18:02:00,
2013-03-26 19:07:00,32.5,29.4,29.71,NNE,32,5.4,6.3,88,0.00,,,0.00,VWS V12.08,2013-03-26 18:07:00,
2013-03-26 19:12:00,32.5,29.4,29.71,NNE,32,3.6,5.4,88,0.00,,,0.00,VWS V12.08,2013-03-26 18:12:00,
2013-03-26 19:17:00,32.5,29.4,29.71,NNE,27,4.0,5.8,88,0.00,,,0.00,VWS V12.08,2013-03-26 18:17:00,
2013-03-26 19:22:00,32.5,29.4,29.71,NNE,33,4.0,4.5,88,0.00,,,0.00,VWS V12.08,2013-03-26 18:22:00,
2013-03-26 19:27:00,32.5,29.7,29.71,NNE,29,3.6,4.9,89,0.00,,,0.00,VWS V12.08,2013-03-26 18:27:00,
2013-03-26 19:32:00,32.5,29.7,29.71,North,6,3.6,3.6,89,0.00,,,0.00,VWS V12.08,2013-03-26 18:32:00,
2013-03-26 19:37:00,32.5,29.7,29.71,NNE,28,4.9,5.8,89,0.00,,,0.00,VWS V12.08,2013-03-26 18:37:00,
2013-03-26 19:42:00,32.4,29.5,29.71,NE,44,3.1,4.0,89,0.00,,,0.00,VWS V12.08,2013-03-26 18:42:00,
2013-03-26 19:47:00,32.4,29.5,29.71,NNE,29,4.0,5.4,89,0.00,,,0.00,VWS V12.08,2013-03-26 18:47:00,
2013-03-26 19:52:00,32.2,29.3,29.71,NE,39,4.0,4.0,89,0.00,,,0.00,VWS V12.08,2013-03-26 18:52:00,
2013-03-26 19:57:00,32.2,29.3,29.71,NNE,32,2.7,5.8,89,0.00,,,0.00,VWS V12.08,2013-03-26 18:57:00,
2013-03-26 20:02:00,32.2,29.3,29.71,NE,41,3.1,3.6,89,0.00,,,0.00,VWS V12.08,2013-03-26 19:02:00,
2013-03-26 20:07:00,32.0,29.1,29.71,NE,34,0.0,5.8,89,0.00,,,0.00,VWS V12.08,2013-03-26 19:07:00,
2013-03-26 20:13:00,32.0,29.1,29.71,NE,47,3.6,4.9,89,0.00,,,0.00,VWS V12.08,2013-03-26 19:13:00,
2013-03-26 20:18:00,31.8,29.0,29.71,NE,36,2.7,4.9,89,0.00,,,0.00,VWS V12.08,2013-03-26 19:18:00,
2013-03-26 20:23:00,31.8,29.0,29.71,NE,39,2.7,3.1,89,0.00,,,0.00,VWS V12.08,2013-03-26 19:23:00,
2013-03-26 20:28:00,31.8,29.0,29.71,NE,51,2.7,3.6,89,0.00,,,0.00,VWS V12.08,2013-03-26 19:28:00,
2013-03-26 20:33:00,31.8,29.0,29.71,NE,49,0.0,4.0,89,0.00,,,0.00,VWS V12.08,2013-03-26 19:33:00,
2013-03-26 20:38:00,31.8,29.0,29.71,NE,54,3.1,4.0,89,0.00,,,0.00,VWS V12.08,2013-03-26 19:38:00,
2013-03-26 20:43:00,31.8,29.0,29.71,NE,37,2.7,4.9,89,0.00,,,0.00,VWS V12.08,2013-03-26 19:43:00,
2013-03-26 20:48:00,31.8,29.0,29.71,NE,35,2.7,4.9,89,0.00,,,0.00,VWS V12.08,2013-03-26 19:48:00,
2013-03-26 20:53:00,31.8,29.0,29.71,NNE,27,3.6,4.0,89,0.00,,,0.00,VWS V12.08,2013-03-26 19:53:00,
2013-03-26 20:58:00,31.8,29.0,29.71,NNE,15,2.7,4.0,89,0.00,,,0.00,VWS V12.08,2013-03-26 19:58:00,
2013-03-26 21:03:00,31.8,29.0,29.71,NNE,12,3.1,4.0,89,0.00,,,0.00,VWS V12.08,2013-03-26 20:03:00,
2013-03-26 21:08:00,31.8,29.0,29.71,NNE,31,3.1,4.0,89,0.00,,,0.00,VWS V12.08,2013-03-26 20:08:00,
2013-03-26 21:13:00,31.8,29.0,29.71,North,9,3.1,4.0,89,0.00,,,0.00,VWS V12.08,2013-03-26 20:13:00,
2013-03-26 21:18:00,31.6,28.8,29.71,NE,37,3.1,5.4,89,0.00,,,0.00,VWS V12.08,2013-03-26 20:18:00,
2013-03-26 21:23:00,31.6,28.8,29.71,NNE,24,2.7,4.5,89,0.00,,,0.00,VWS V12.08,2013-03-26 20:23:00,
2013-03-26 21:28:00,31.6,28.8,29.71,NNE,20,2.2,4.9,89,0.00,,,0.00,VWS V12.08,2013-03-26 20:28:00,
2013-03-26 21:33:00,31.6,28.8,29.71,NE,39,0.0,3.6,89,0.00,,,0.00,VWS V12.08,2013-03-26 20:33:00,
2013-03-26 21:38:00,31.6,29.0,29.71,NE,34,3.6,4.0,90,0.00,,,0.00,VWS V12.08,2013-03-26 20:38:00,
2013-03-26 21:43:00,31.6,29.0,29.71,NNE,28,2.2,3.6,90,0.00,,,0.00,VWS V12.08,2013-03-26 20:43:00,
2013-03-26 21:48:00,31.5,28.9,29.71,NE,41,4.0,4.0,90,0.00,,,0.00,VWS V12.08,2013-03-26 20:48:00,
2013-03-26 21:53:00,31.5,28.9,29.71,North,357,3.1,4.0,90,0.00,,,0.00,VWS V12.08,2013-03-26 20:53:00,
2013-03-26 21:58:00,31.5,28.9,29.71,NE,37,2.7,4.0,90,0.00,,,0.00,VWS V12.08,2013-03-26 20:58:00,
2013-03-26 22:03:00,31.5,28.9,29.71,NE,39,2.7,5.4,90,0.00,,,0.00,VWS V12.08,2013-03-26 21:03:00,
2013-03-26 22:08:00,31.5,28.9,29.71,NE,43,2.7,5.4,90,0.00,,,0.00,VWS V12.08,2013-03-26 21:08:00,
2013-03-26 22:13:00,31.3,28.7,29.71,NE,50,2.2,4.0,90,0.00,,,0.00,VWS V12.08,2013-03-26 21:13:00,
2013-03-26 22:18:00,31.3,28.7,29.71,NE,37,0.0,4.0,90,0.00,,,0.00,VWS V12.08,2013-03-26 21:18:00,
2013-03-26 22:23:00,31.3,28.7,29.71,NE,38,0.0,3.6,90,0.00,,,0.00,VWS V12.08,2013-03-26 21:23:00,
2013-03-26 22:28:00,31.3,28.7,29.71,NE,46,2.7,3.6,90,0.00,,,0.00,VWS V12.08,2013-03-26 21:28:00,
2013-03-26 22:33:00,31.3,28.7,29.71,NE,49,2.7,3.6,90,0.00,,,0.00,VWS V12.08,2013-03-26 21:33:00,
2013-03-26 22:38:00,31.3,28.7,29.71,NNE,20,2.7,4.0,90,0.00,,,0.00,VWS V12.08,2013-03-26 21:38:00,
2013-03-26 22:43:00,31.3,28.7,29.71,NE,34,2.7,3.1,90,0.00,,,0.00,VWS V12.08,2013-03-26 21:43:00,
2013-03-26 22:48:00,31.1,28.5,29.71,NNE,20,2.7,5.4,90,0.00,,,0.00,VWS V12.08,2013-03-26 21:48:00,
2013-03-26 22:53:00,31.1,28.5,29.71,North,6,3.1,3.6,90,0.00,,,0.00,VWS V12.08,2013-03-26 21:53:00,
2013-03-26 22:58:00,31.1,28.5,29.71,NNE,31,3.6,5.4,90,0.00,,,0.00,VWS V12.08,2013-03-26 21:58:00,
2013-03-26 23:03:00,31.1,28.5,29.71,North,6,2.7,3.6,90,0.00,,,0.00,VWS V12.08,2013-03-26 22:03:00,
2013-03-26 23:08:00,31.1,28.5,29.71,NE,39,3.1,5.4,90,0.00,,,0.00,VWS V12.08,2013-03-26 22:08:00,
2013-03-26 23:13:00,31.1,28.5,29.71,NNE,24,3.1,5.4,90,0.00,,,0.00,VWS V12.08,2013-03-26 22:13:00,
2013-03-26 23:18:00,31.1,28.5,29.71,ENE,61,4.9,5.4,90,0.00,,,0.00,VWS V12.08,2013-03-26 22:18:00,
2013-03-26 23:23:00,31.1,28.5,29.71,NNE,20,2.2,4.0,90,0.00,,,0.00,VWS V12.08,2013-03-26 22:23:00,
2013-03-26 23:28:00,31.1,28.5,29.71,NE,42,4.0,4.9,90,0.00,,,0.00,VWS V12.08,2013-03-26 22:28:00,
2013-03-26 23:33:00,31.1,28.5,29.71,NE,41,2.2,4.0,90,0.00,,,0.00,VWS V12.08,2013-03-26 22:33:00,
2013-03-26 23:38:00,31.1,28.5,29.71,NE,49,2.7,5.4,90,0.00,,,0.00,VWS V12.08,2013-03-26 22:38:00,
2013-03-26 23:43:00,31.1,28.5,29.71,NE,42,2.2,3.6,90,0.00,,,0.00,VWS V12.08,2013-03-26 22:43:00,
2013-03-26 23:48:00,31.1,28.5,29.71,NE,47,2.7,4.5,90,0.00,,,0.00,VWS V12.08,2013-03-26 22:48:00,
2013-03-26 23:53:00,31.1,28.5,29.71,NNE,18,2.7,3.1,90,0.00,,,0.00,VWS V12.08,2013-03-26 22:53:00,
2013-03-26 23:58:00,30.9,28.3,29.71,NE,35,3.1,4.0,90,0.00,,,0.00,VWS V12.08,2013-03-26 22:58:00,